Location: Alphen
(52.1351°N, 4.6549°E)
Time: 01:44:32
(UTC+00:00)

FENGYUN 3A - Pass Details

Date: 27 January 2021
Orbit: 824 x 836 km, 98.4° (Epoch: 26 February)

Event Time Altitude Azimuth Distance (km) Brightness Sun altitude
Rises 03:57:12 0° 17° (NNE) 3,379 7.2 -32.3°
Reaches altitude 10° 03:59:36 10° 21° (NNE) 2,442 6.4 -31.9°
Enters shadow 04:04:53 61° 97° (E) 939 4.0 -31.1°
